FW2442 Weather Reports


time (UTC)temp
C
wind
direction
speed
KPH
gust
KPH
rain 1hr
cm
rain 24hr
cm
rain mn
cm
humidity
%
barometer
mb
20260506141520 27 167 4.8 14.5 0.00 0.00 0.00 35 1012.4
20260506140519 27 184 6.4 12.9 0.00 0.00 0.00 35 1012.3
20260506135539 27 163 6.4 16.1 0.00 0.00 0.00 35 1012.4
20260506134520 27 180 6.4 20.9 0.00 0.00 0.00 34 1012.4
20260506133519 27 174 6.4 14.5 0.00 0.00 0.00 34 1012.4
20260506132522 27 172 4.8 9.7 0.00 0.00 0.00 34 1012.4
20260506131519 27 174 4.8 11.3 0.00 0.00 0.00 34 1012.5
20260506130519 27 186 6.4 19.3 0.00 0.00 0.00 33 1012.5
20260506125519 27 172 6.4 17.7 0.00 0.00 0.00 33 1012.6
20260506124520 27 189 4.8 14.5 0.00 0.00 0.00 32 1012.7
20260506123521 27 173 9.7 19.3 0.00 0.00 0.00 33 1012.8
20260506122603 27 192 4.8 12.9 0.00 0.00 0.00 33 1012.9
20260506121527 27 185 9.7 20.9 0.00 0.00 0.00 32 1013.0
20260506120522 27 140 3.2 8.0 0.00 0.00 0.00 33 1013.0
20260506115542 27 174 8.0 16.1 0.00 0.00 0.00 31 1013.2
20260506114520 27 177 4.8 12.9 0.00 0.00 0.00 30 1013.3
20260506113522 27 166 3.2 8.0 0.00 0.00 0.00 31 1013.3
20260506112519 27 132 6.4 14.5 0.00 0.00 0.00 32 1013.3
20260506111519 27 171 8.0 14.5 0.00 0.00 0.00 34 1013.4
20260506110539 26 191 9.7 17.7 0.00 0.00 0.00 34 1013.5
20260506105521 26 147 6.4 12.9 0.00 0.00 0.00 35 1013.5
20260506104523 26 134 4.8 11.3 0.00 0.00 0.00 35 1013.5
20260506103522 26 160 4.8 12.9 0.00 0.00 0.00 36 1013.6
20260506102524 26 187 4.8 14.5 0.00 0.00 0.00 37 1013.7
20260506101523 26 153 3.2 6.4 0.00 0.00 0.00 37 1013.7
20260506100521 26 163 4.8 12.9 0.00 0.00 0.00 37 1013.8
20260506095523 25 169 3.2 4.8 0.00 0.00 0.00 38 1013.9
20260506094520 25 121 4.8 11.3 0.00 0.00 0.00 39 1014.0
20260506093522 25 181 6.4 14.5 0.00 0.00 0.00 40 1014.1
20260506092520 25 187 6.4 14.5 0.00 0.00 0.00 39 1014.1
20260506091519 25 152 1.6 4.8 0.00 0.00 0.00 41 1014.1
20260506090522 24 164 3.2 11.3 0.00 0.00 0.00 41 1014.2
20260506085522 23 145 4.8 8.0 0.00 0.00 0.00 43 1014.1
20260506084520 23 128 1.6 3.2 0.00 0.00 0.00 43 1014.2
20260506083521 22 151 4.8 9.7 0.00 0.00 0.00 45 1014.2
20260506082522 22 126 1.6 3.2 0.00 0.00 0.00 45 1014.2
20260506081540 21 138 4.8 11.3 0.00 0.00 0.00 47 1014.3
20260506080525 21 144 4.8 11.3 0.00 0.00 0.00 47 1014.2
20260506073521 20 168 1.6 6.4 0.00 0.00 0.00 50 1014.4
20260506072520 20 173 0.0 6.4 0.00 0.00 0.00 50 1014.4
20260506071526 19 179 0.0 1.6 0.00 0.00 0.00 50 1014.4
20260506070545 18 124 1.6 9.7 0.00 0.00 0.00 52 1014.4
20260506061546 17 120 0.0 1.6 0.00 0.00 0.00 55 1014.7
20260506060547 16 120 0.0 1.6 0.00 0.00 0.00 55 1014.8
20260506050521 13 0.0 0.0 0.00 0.00 0.00 61 1014.7
20260506044541 13 0.0 0.0 0.00 0.00 0.00 66 1014.7
20260506043526 12 0.0 0.0 0.00 0.00 0.00 68 1014.8
20260506042527 12 0.0 0.0 0.00 0.00 0.00 68 1014.8
20260506041526 11 0.0 0.0 0.00 0.00 0.00 69 1014.8
20260506040522 11 0.0 0.0 0.00 0.00 0.00 69 1014.7
20260506035530 11 0.0 0.0 0.00 0.00 0.00 69 1014.7
20260506034523 10 0.0 0.0 0.00 0.00 0.00 70 1014.7
20260506033525 10 0.0 0.0 0.00 0.00 0.00 70 1014.6
20260506032521 10 0.0 0.0 0.00 0.00 0.00 71 1014.6
20260506031523 10 0.0 0.0 0.00 0.00 0.00 72 1014.5
20260506030522 9 0.0 0.0 0.00 0.00 0.00 73 1014.4
20260506025522 10 0.0 0.0 0.00 0.00 0.00 73 1014.3
20260506024521 10 0.0 0.0 0.00 0.00 0.00 73 1014.2
20260506023522 10 0.0 0.0 0.00 0.00 0.00 73 1014.2
20260506022523 10 0.0 0.0 0.00 0.00 0.00 72 1014.1
20260506021521 10 0.0 0.0 0.00 0.00 0.00 73 1014.0
20260506020541 10 0.0 0.0 0.00 0.00 0.00 74 1014.0
20260506015601 10 0.0 0.0 0.00 0.00 0.00 74 1013.9
20260506014521 10 110 1.6 3.2 0.00 0.00 0.00 74 1014.0
20260506013521 10 131 0.0 1.6 0.00 0.00 0.00 75 1014.0
20260506012523 10 0.0 0.0 0.00 0.00 0.00 76 1014.0
20260506011525 11 0.0 0.0 0.00 0.00 0.00 75 1014.0
20260506010521 11 0.0 0.0 0.00 0.00 0.00 74 1013.9
20260506005521 11 0.0 0.0 0.00 0.00 0.00 74 1013.9
20260506004601 11 0.0 0.0 0.00 0.00 0.00 74 1013.9
20260506003521 11 131 0.0 1.6 0.00 0.00 0.00 74 1013.7
20260506002525 12 122 0.0 1.6 0.00 0.00 0.00 74 1013.6
20260506001522 12 0.0 0.0 0.00 0.00 0.00 74 1013.7
20260506000522 12 125 0.0 1.6 0.00 0.00 0.00 74 1013.6
20260505235521 12 0.0 0.0 0.00 0.00 0.00 73 1013.6
20260505234520 12 0.0 0.0 0.00 0.00 0.00 72 1013.5
20260505233519 12 0.0 0.0 0.00 0.00 0.00 72 1013.5
20260505232559 12 135 0.0 1.6 0.00 0.00 0.00 71 1013.4
20260505231600 13 135 0.0 1.6 0.00 0.00 0.00 70 1013.5
20260505230540 13 105 0.0 3.2 0.00 0.00 0.00 69 1013.5
20260505225520 13 132 0.0 3.2 0.00 0.00 0.00 68 1013.5
20260505224518 13 115 1.6 3.2 0.00 0.00 0.00 68 1013.5
20260505223517 13 108 0.0 1.6 0.00 0.00 0.00 67 1013.3
20260505222517 14 104 1.6 4.8 0.00 0.00 0.00 66 1013.4
20260505221516 15 133 0.0 1.6 0.00 0.00 0.00 64 1013.4
20260505220536 15 0.0 0.0 0.00 0.00 0.00 62 1013.4
20260505215520 16 0.0 0.0 0.00 0.00 0.00 59 1013.4
20260505214520 16 135 1.6 4.8 0.00 0.00 0.00 58 1013.3
20260505213521 16 154 3.2 6.4 0.00 0.00 0.00 57 1013.3
20260505212520 17 156 3.2 8.0 0.00 0.00 0.00 56 1013.2
20260505211529 17 154 1.6 3.2 0.00 0.00 0.00 54 1013.2
20260505210523 17 172 3.2 6.4 0.00 0.00 0.00 53 1013.3
20260505205520 17 150 1.6 6.4 0.00 0.00 0.00 53 1013.3
20260505204520 18 158 3.2 8.0 0.00 0.00 0.00 52 1013.2
20260505203520 18 172 3.2 11.3 0.00 0.00 0.00 52 1013.2
20260505202520 18 154 3.2 8.0 0.00 0.00 0.00 51 1013.3
20260505201521 18 156 3.2 6.4 0.00 0.00 0.00 51 1013.3
20260505200520 18 156 3.2 9.7 0.00 0.00 0.00 51 1013.3
20260505195540 18 173 3.2 4.8 0.00 0.00 0.00 52 1013.3
20260505194520 18 176 3.2 9.7 0.00 0.00 0.00 52 1013.1
20260505193521 18 197 4.8 9.7 0.00 0.00 0.00 52 1012.9
20260505192520 18 175 3.2 6.4 0.00 0.00 0.00 51 1012.9
20260505191521 19 162 4.8 9.7 0.00 0.00 0.00 50 1012.8
20260505190521 19 172 3.2 9.7 0.00 0.00 0.00 50 1012.9
20260505185520 19 166 3.2 4.8 0.00 0.00 0.00 50 1012.8
20260505184521 20 208 3.2 6.4 0.00 0.00 0.00 48 1012.8
20260505183520 21 180 4.8 8.0 0.00 0.00 0.00 46 1012.6
20260505182522 21 162 3.2 6.4 0.00 0.00 0.00 45 1012.5
20260505181541 21 141 3.2 8.0 0.00 0.00 0.00 43 1012.4
20260505180521 21 174 3.2 9.7 0.00 0.00 0.00 41 1012.0
20260505175519 21 0.0 0.0 0.00 0.00 0.00 39 1012.2
20260505174520 22 0.0 0.0 0.00 0.00 0.00 38 1012.0
20260505173521 22 117 0.0 3.2 0.00 0.00 0.00 37 1012.1
20260505172521 23 0.0 0.0 0.00 0.00 0.00 36 1012.0
20260505171541 23 0.0 0.0 0.00 0.00 0.00 35 1011.9
20260505170520 24 107 1.6 3.2 0.00 0.00 0.00 35 1011.9
20260505165521 25 109 1.6 1.6 0.00 0.00 0.00 34 1012.0
20260505164522 25 126 1.6 1.6 0.00 0.00 0.00 34 1011.9
20260505163542 25 115 1.6 1.6 0.00 0.00 0.00 34 1011.9
20260505162520 25 107 1.6 3.2 0.00 0.00 0.00 33 1011.9
20260505161541 25 108 1.6 1.6 0.00 0.00 0.00 32 1011.9
20260505160521 26 112 1.6 1.6 0.00 0.00 0.00 32 1011.9
20260505152521 27 125 1.6 3.2 0.00 0.00 0.00 28 1012.0
20260505151519 27 122 3.2 6.4 0.00 0.00 0.00 28 1012.1
20260505150520 27 117 1.6 4.8 0.00 0.00 0.00 28 1012.1